FW0683 Weather Reports


time (UTC)temp
F
wind
direction
speed
knots
gust
knots
rain 1hr
in
rain 24hr
in
rain mn
in
humidity
%
barometer
mb
20260504043107 35 59 0.0 0.0 0.00 0.02 0.00 83 1013.5
20260504041554 35 59 0.0 0.0 0.00 0.02 0.00 82 1013.4
20260504040058 35 48 0.0 0.0 0.00 0.02 0.00 83 1013.4
20260504034552 35 48 0.0 0.0 0.00 0.02 0.02 81 1013.2
20260504033056 36 49 0.0 0.0 0.00 0.02 0.02 80 1013.2
20260504031558 35 34 0.0 0.0 0.00 0.02 0.02 81 1013.2
20260504030049 35 34 0.0 0.0 0.00 0.02 0.02 80 1013.2
20260504024548 36 34 0.0 0.0 0.00 0.02 0.02 77 1013.1
20260504023045 37 34 0.0 0.0 0.00 0.02 0.02 75 1013.2
20260504021542 37 34 0.0 0.0 0.00 0.02 0.02 72 1013.1
20260504020041 38 33 0.0 0.0 0.00 0.02 0.02 71 1013.1
20260504014553 39 34 0.0 0.0 0.00 0.02 0.02 69 1013.0
20260504013041 39 34 0.0 0.0 0.00 0.02 0.02 67 1013.0
20260504011533 41 34 0.0 0.0 0.00 0.02 0.02 63 1012.9
20260504010032 42 34 0.0 0.0 0.00 0.02 0.02 63 1012.7
20260504004532 43 33 0.0 0.0 0.00 0.02 0.02 59 1012.5
20260504003031 44 281 0.0 0.0 0.00 0.02 0.02 59 1012.3
20260504001535 46 280 0.0 0.9 0.00 0.02 0.02 54 1011.8
20260504000040 47 353 0.0 0.0 0.00 0.02 0.02 50 1011.4
20260503234531 47 292 0.0 0.0 0.00 0.02 0.02 52 1011.2
20260503233029 47 259 0.0 0.0 0.00 0.02 0.02 52 1011.0
20260503231530 49 90 0.0 0.0 0.00 0.02 0.02 48 1010.8
20260503230031 49 250 0.0 3.5 0.00 0.10 0.02 45 1010.6
20260503224535 51 1 0.0 3.5 0.00 0.10 0.02 41 1010.4
20260503223029 51 347 0.0 3.5 0.00 0.10 0.02 43 1010.4
20260503221528 51 241 0.0 0.9 0.00 0.10 0.02 43 1010.3
20260503220028 52 288 0.0 6.1 0.00 0.10 0.02 43 1010.0
20260503214532 52 77 0.0 1.7 0.00 0.10 0.02 41 1009.8
20260503213031 52 109 0.0 5.2 0.00 0.10 0.02 40 1009.8
20260503211525 51 247 0.0 9.6 0.00 0.10 0.02 43 1009.7
20260503210040 52 104 0.0 3.5 0.00 0.10 0.02 46 1009.5
20260503204525 52 33 0.0 7.8 0.00 0.10 0.02 43 1009.4
20260503203026 52 8 0.0 7.0 0.00 0.10 0.02 48 1009.4
20260503201532 54 359 0.0 6.1 0.00 0.10 0.02 44 1009.1
20260503200023 54 34 0.0 11.3 0.00 0.10 0.02 45 1009.2
20260503194521 54 313 0.0 1.7 0.00 0.10 0.02 46 1009.2
20260503193018 52 318 0.9 8.7 0.00 0.10 0.02 47 1009.2
20260503191519 54 278 0.0 2.6 0.00 0.10 0.02 45 1009.2
20260503190017 54 263 0.0 1.7 0.00 0.10 0.02 47 1009.3
20260503184520 53 39 0.0 7.0 0.00 0.10 0.02 48 1009.2
20260503183011 52 326 0.0 10.4 0.00 0.10 0.02 50 1009.4
20260503181510 51 238 0.0 5.2 0.00 0.10 0.02 55 1009.4
20260503180010 51 311 0.9 7.8 0.00 0.10 0.02 54 1009.3
20260503174508 51 10 0.0 2.6 0.00 0.10 0.02 52 1009.3
20260503173007 51 221 0.0 7.0 0.00 0.10 0.02 57 1009.3
20260503171502 49 259 0.0 2.6 0.00 0.10 0.02 64 1009.3
20260503081525 41 324 0.0 0.0 0.00 0.20 0.01 95 1011.8
20260503071523 41 324 0.0 0.0 0.00 0.20 0.01 95 1012.4
20260503054603 43 66 0.0 0.0 0.00 0.20 0.01 95 1013.2
20260503053057 44 66 0.0 0.0 0.01 0.20 0.01 95 1013.2
20260503051555 44 65 0.0 0.0 0.01 0.20 0.01 95 1013.5
20260503050054 44 66 0.0 0.0 0.01 0.20 0.01 95 1013.8
20260503044555 44 65 0.0 0.0 0.01 0.20 0.01 95 1014.1